Torna al catalogo

STARLINK-2099

AttivoComunicazioniVLEO
NORAD 47379·PAYLOAD·🇺🇸 United States

Lanciato Jan 20, 2021 da Cape Canaveral Space Force Station

Loading…

Prossimi Passaggi (prossime 24 ore)

TLE

AggiornatoSource: CelesTrak SupGP

Epoca: Sep 14, 2026, 21:21 UTC

1 47379C 21005AG  26257.89006944  .00020068  00000+0  64530-3 0  2573
2 47379  53.1601 213.0440 0001459  91.6371 342.0342 15.31693269    12

Traccia STARLINK-2099 in tempo reale con AllMySat

Download on the App Store